Regional Weather Roundup
Issued by NWS Sterling, VA

Home | Current Version | Previous Version | Graphics & Text | Print | Product List | Glossary On
Versions: 1 2 3 4 5 6 7 8 9 10 11 12 13 14 15 16 17 18 19 20 21 22 23 24 25 26 27 28
000
ASUS41 KLWX 070710
RWRLWX

REGIONAL WEATHER ROUNDUP
NATIONAL WEATHER SERVICE BALTIMORE MD/WASHINGTON DC
200 AM EST WED DEC 07 2016

Note: "FAIR" indicates few or no clouds below 12,000 feet
with no significant weather and/or obstructions to visibility.
 TC=TEMPERATURE CELSIUS

 * =Non NWS site. Station does not report precipitation (e.g. rain,
    snow, etc.), thunder, or fog.

DCZ001-MDZ009-015-VAZ040>042-051-053>054-070800-
WASHINGTON METRO

CITY           SKY/WX    TMP DP  RH WIND       PRES   REMARKS
WASHINGTON NAT CLOUDY    43  42  97 NW10      29.89R
DULLES         CLOUDY    40  38  93 N8        29.89R
ANDREWS AFB    CLOUDY    43  42  93 NW9       29.86R
FT BELVOIR     CLOUDY    43  40  89 NW8       29.88R
QUANTICO       CLOUDY    43  40  89 N9        29.89R
COLLEGE PARK*  CLOUDY    43  41  93 NW5       29.88R
LEESBURG*      CLOUDY    41  41 100 N7        29.91R
MANASSAS*        N/A    N/A N/A N/A MISG        N/A
GAITHERSBURG*  CLOUDY    39  36  87 CALM      29.92R

$$

MDZ006>007-011-014-070800-
BALTIMORE METRO

CITY           SKY/WX    TMP DP  RH WIND       PRES   REMARKS
BWI AIRPORT    CLOUDY    43  43 100 NW5       29.87R
MD SCIENCE CTR   N/A     45  40  82 MISG      29.88R
ANNAPOLIS      CLOUDY    46  42  86 NW10      29.87R
FORT MEADE*    CLOUDY    41  41 100 NW5       29.90R

$$

MDZ012-015-019>023-070800-
MARYLAND EASTERN SHORE

CITY           SKY/WX    TMP DP  RH WIND       PRES   REMARKS
OCEAN CITY     CLOUDY    50  50 100 N13G22    29.73R
SALISBURY      CLOUDY    48  46  93 NW13      29.79R
BAY BRIDGE AP* CLOUDY    45  43  93 N10G17    29.87R
CAMBRIDGE*     CLOUDY    43  41  93 NW8       29.84R
EASTON*        CLOUDY    45  42  89 N7        29.88R

$$

MDZ017>025-070800-
SOUTHERN MARYLAND

CITY           SKY/WX    TMP DP  RH WIND       PRES   REMARKS
PATUXENT RIVER CLOUDY    46  44  93 N13       29.85R
ST INIGOES     CLOUDY    46  44  93 NW3       29.84R
LEONARDTOWN*   CLOUDY    43  41  93 NW3       29.87R

$$

MDZ003>005-070800-
NORTH CENTRAL MARYLAND

CITY           SKY/WX    TMP DP  RH WIND       PRES   REMARKS
FREDERICK*     CLOUDY    39  39 100 CALM      29.94R FOG
HAGERSTOWN APT CLOUDY    38  36  92 W3        29.89R FOG
WESTMINSTER*   DRIZZLE   37  37 100 NW3       29.87R

$$

MDZ501>502-070800-
WESTERN MARYLAND

CITY           SKY/WX    TMP DP  RH WIND       PRES   REMARKS
OAKLAND*       FOG       36  36 100 CALM      29.83R VSB 1/4
CUMBERLAND*    NOT AVBL

$$

VAZ025>031-070800-
SHENANDOAH VALLEY

CITY           SKY/WX    TMP DP  RH WIND       PRES   REMARKS
WINCHESTER*    DRIZZLE   36  36 100 CALM      29.89R
FRONT ROYAL*   CLOUDY    37  36  93 CALM      29.88S
LURAY*         CLOUDY    37  37 100 CALM      29.89S FOG
NEW MARKET*    CLOUDY    37  36  94 CALM      29.88S
STAUNTON*      CLOUDY    36  36  99 CALM      29.91R FOG
WAYNESBORO*    CLOUDY    36  35  96 CALM      29.87S

$$

WVZ021-048>050-054>055-070800-
EASTERN WEST VIRGINIA PANHANDLE

CITY           SKY/WX    TMP DP  RH WIND       PRES   REMARKS
MARTINSBURG    CLOUDY    38  37  97 SE3       29.90R FOG
PETERSBURG*    CLOUDY    38  37  98 CALM      29.90R

$$

VAZ036>039-050-070800-
CENTRAL FOOTHILLS

CITY           SKY/WX    TMP DP  RH WIND       PRES   REMARKS
CHARLOTTESVILL CLOUDY    42  39  89 W3        29.88R
CULPEPER*      CLOUDY    42  40  93 CALM      29.90R
ORANGE*          N/A     43  43 100 CALM      29.89S
GORDONSVILLE*  CLOUDY    43  40  91 CALM      29.87R
WARRENTON*     CLOUDY    42  37  81 N3        29.88R

$$

VAZ055>057-070800-
NORTH AND CENTRAL PIEDMONT

CITY           SKY/WX    TMP DP  RH WIND       PRES   REMARKS
FREDERICKSBRG* CLOUDY    43  43 100 NW5       29.88R
STAFFORD*      CLOUDY    41  41 100 NW9       29.92R

$$

NCZ024-NYZ072-PAZ021-071-VAZ022-071-070800-
OTHER REGIONAL OBSERVATIONS

CITY           SKY/WX    TMP DP  RH WIND       PRES   REMARKS
NEW YORK CITY  CLOUDY    41  38  89 NE8G20    29.87S
PHILADELPHIA   DRIZZLE   42  40  92 NE14      29.82F FOG
PITTSBURGH     CLOUDY    39  37  92 W14       29.89R
ROANOKE        MOCLDY    47  40  76 NW7       29.89R
RICHMOND       CLOUDY    43  41  93 NW8       29.85R
RALEIGH        CLOUDY    44  41  89 VRB5      29.90R

$$

ANZ530>537-070800-
MARINE OBSERVATIONS

STATION/POSITION TIME  TEMP    WIND        PRES
                       AIR SEA DIR/SP/G
                 (UTC) (F)     (DEG/KT/KT) (MB)
THOMAS PT LIGHT  0700   44 49  340/ 12/ 14   N/A
BALT KEY BRIDGE  0648   44     320/  9/ 11 1011.4R
COVE POINT       0648   45      10/ 14/ 20 1011.2R
LEWISETTA        0648   46 48  340/  8/ 10 1010.1R
SOLOMONS ISLAND  0648   45 50  340/  9/ 12   N/A
PINEY POINT      0648          360/ 14/ 17   N/A

$$





USA.gov is the U.S. government's official web portal to all federal, state and local government web resources and services.